Weather reports worldwide

Advertisment
Åsele, Sweden (2254): temperature & dewpoint: 23.05.2020 00:00:00 - 29.05.2020 00:00:00 (CEST)Åsele, Sweden (2254): wind speed & gusts: 23.05.2020 00:00:00 - 29.05.2020 00:00:00 (CEST)Åsele, Sweden (2254): wind direction: 23.05.2020 00:00:00 - 29.05.2020 00:00:00 (CEST)Åsele, Sweden (2254): reduced air pressure: 23.05.2020 00:00:00 - 29.05.2020 00:00:00 (CEST)Åsele, Sweden (2254): visibility: 23.05.2020 00:00:00 - 29.05.2020 00:00:00 (CEST)Åsele, Sweden (2254): precipitation: 23.05.2020 00:00:00 - 29.05.2020 00:00:00 (CEST)
Date & Time tt [°C] td [°C] ff [km/h] ff [kn] fx [km/h] fx [kn] dd ppp [hPa] vv [km] rr [mm]
29.05.2020 00:00:00 6,1 2,7 9 5 22 12 W 1028,3 50 0,0
28.05.2020 23:00:00 6,0 2,3 10 5 26 14 W 1028,2 50 0,0
28.05.2020 22:00:00 6,6 2,1 12 6 26 14 W 1028,1 50 0,0
28.05.2020 21:00:00 7,2 2,3 9 5 29 16 W 1027,9 50 0,0
28.05.2020 20:00:00 7,9 3,0 10 5 27 15 W 1027,7 44 0,0
28.05.2020 19:00:00 7,8 4,6 8 4 21 11 W 1027,5 50 0,0
28.05.2020 18:00:00 7,8 4,4 12 6 31 17 W 1027,5 24 0,0
28.05.2020 17:00:00 8,8 3,2 14 8 35 19 W 1027,1 25 0,0
28.05.2020 16:00:00 10,4 2,0 16 9 41 22 W 1026,7 40 0,0
28.05.2020 15:00:00 9,6 1,2 14 8 35 19 W 1026,7 38 0,0
28.05.2020 14:00:00 9,4 2,5 17 9 32 17 W 1026,8 31 0,0
28.05.2020 13:00:00 7,7 2,4 14 8 38 20 WNW 1027,0 20 0,0
28.05.2020 12:00:00 8,0 2,5 15 8 29 15 W 1026,9 18 0,0
28.05.2020 11:00:00 7,9 2,4 16 8 30 16 WNW 1026,8 25 0,0
28.05.2020 10:00:00 7,9 1,3 16 9 33 18 W 1026,8 43 0,0
28.05.2020 09:00:00 9,0 0,7 12 6 31 17 WNW 1026,1 43 0,0
28.05.2020 08:00:00 8,7 1,1 12 6 29 15 W 1026,1 39 0,0
28.05.2020 07:00:00 6,8 1,1 10 5 26 14 W 1026,6 44 0,0
28.05.2020 06:00:00 5,3 1,4 8 4 19 10 W 1026,7 39 0,0
28.05.2020 05:00:00 4,2 1,4 4 2 14 7 W 1026,6 43 0,0
28.05.2020 04:00:00 3,8 1,3 8 4 16 9 W 1026,5 50 0,0
28.05.2020 03:00:00 3,0 0,6 3 2 11 6 WNW 1026,5 50 0,0
28.05.2020 02:00:00 3,9 1,3 5 3 17 9 W 1026,3 50 0,0
28.05.2020 01:00:00 4,3 1,2 7 4 24 13 W 1026,1 50 0,0
28.05.2020 00:00:00 5,1 1,4 9 5 16 9 W 1025,8 50 0,0
27.05.2020 23:00:00 5,7 1,0 4 2 23 13 W 1025,6 50 0,0
27.05.2020 22:00:00 7,3 1,2 10 5 26 14 WNW 1025,3 50 0,0
27.05.2020 21:00:00 8,6 0,8 11 6 29 16 W 1024,5 50 0,0
27.05.2020 20:00:00 9,8 1,7 14 8 32 17 WNW 1023,8 50 0,0
27.05.2020 19:00:00 10,8 0,8 14 7 32 17 W 1023,4 50 0,0
27.05.2020 18:00:00 11,8 -0,7 16 9 31 17 W 1023,3 46 0,0
27.05.2020 17:00:00 12,0 1,3 11 6 32 17 WNW 1023,2 43 0,0
27.05.2020 16:00:00 12,8 0,5 16 9 37 20 W 1023,1 49 0,0
27.05.2020 15:00:00 12,8 -0,5 14 7 32 18 W 1023,2 43 0,0
27.05.2020 14:00:00 13,2 -0,5 15 8 33 18 W 1023,2 40 0,0
27.05.2020 13:00:00 12,7 -0,2 16 9 32 18 WNW 1023,4 30 0,0
27.05.2020 12:00:00 12,6 -0,3 14 8 31 17 WNW 1023,6 41 0,0
27.05.2020 11:00:00 12,2 0,9 14 7 29 16 W 1023,9 31 0,0
27.05.2020 10:00:00 10,2 1,0 11 6 28 15 WNW 1024,4 33 0,0
27.05.2020 09:00:00 9,3 1,9 14 8 29 16 WNW 1024,7 31 0,0
27.05.2020 08:00:00 8,6 1,7 11 6 35 19 NW 1025,1 37 0,0
27.05.2020 07:00:00 8,7 3,1 11 6 24 13 WNW 1025,3 42 0,0
27.05.2020 06:00:00 7,7 3,0 7 4 19 10 W 1025,5 49 0,0
27.05.2020 05:00:00 7,6 2,9 9 5 20 11 W 1025,4 50 0,0
27.05.2020 04:00:00 8,1 3,2 8 4 16 9 WNW 1025,3 50 0,0
27.05.2020 03:00:00 8,6 3,8 6 4 28 15 WNW 1025,3 50 -
27.05.2020 02:00:00 8,0 7,1 3 2 9 5 NW 1024,9 50 0,0
27.05.2020 01:00:00 7,3 7,0 0 0 6 3 N 1024,6 8 0,0
27.05.2020 00:00:00 9,2 9,1 0 0 6 4 N 1024,4 8 0,0
26.05.2020 23:00:00 10,1 9,3 3 2 10 5 N 1024,1 50 0,1
26.05.2020 22:00:00 10,6 9,8 3 2 6 4 S 1024,9 15 0,3
26.05.2020 21:00:00 11,9 9,8 3 1 9 5 SSE 1024,1 50 0,0
26.05.2020 20:00:00 13,7 8,1 9 5 30 16 NW 1023,5 16 0,0
26.05.2020 19:00:00 18,3 3,0 10 5 22 12 SSW 1022,9 50 0,0
26.05.2020 18:00:00 19,2 3,0 10 5 25 13 SSW 1023,4 50 0,0
26.05.2020 17:00:00 20,0 2,8 11 6 25 13 SW 1024,0 50 0,0
26.05.2020 16:00:00 19,1 2,9 8 5 26 14 SSW 1024,8 50 0,0
26.05.2020 15:00:00 19,6 2,5 10 6 28 15 S 1025,3 50 0,0
26.05.2020 14:00:00 19,0 2,8 9 5 31 17 S 1026,2 50 0,0
26.05.2020 13:00:00 20,6 3,3 13 7 26 14 SSW 1026,5 40 0,0
26.05.2020 12:00:00 19,0 2,8 10 6 27 15 SSW 1027,2 46 0,0
26.05.2020 11:00:00 18,8 3,8 16 9 29 15 SSW 1027,8 35 0,0
26.05.2020 10:00:00 17,5 5,1 11 6 22 12 SSW 1028,4 35 0,0
26.05.2020 09:00:00 15,6 4,6 8 5 22 12 S 1029,0 40 0,0
26.05.2020 08:00:00 13,0 4,7 2 1 5 3 SSE 1029,9 50 0,0
26.05.2020 07:00:00 9,0 3,4 2 1 5 3 E 1030,9 48 0,0
26.05.2020 06:00:00 5,9 2,7 0 0 2 1 N 1031,9 48 0,0
26.05.2020 05:00:00 0,3 -0,1 0 0 2 1 N 1032,6 31 0,0
26.05.2020 04:00:00 -1,2 -1,3 0 0 3 1 N 1032,8 14 0,0
26.05.2020 03:00:00 -1,0 -1,3 0 0 3 2 N 1032,7 25 0,0
26.05.2020 02:00:00 0,0 -0,4 0 0 2 1 N 1032,7 28 0,0
26.05.2020 01:00:00 1,1 0,5 0 0 3 1 N 1032,5 34 0,0
26.05.2020 00:00:00 2,7 1,4 0 0 3 1 N 1032,1 50 0,0
25.05.2020 23:00:00 5,3 2,8 0 0 6 4 N 1031,7 50 0,0
25.05.2020 22:00:00 10,1 3,4 5 3 11 6 NNW 1030,6 50 0,0
25.05.2020 21:00:00 12,9 3,3 7 4 16 9 NNW 1029,7 50 0,0
25.05.2020 20:00:00 14,2 3,3 9 5 23 12 NNW 1029,1 50 0,0
25.05.2020 19:00:00 15,3 3,1 11 6 28 15 NW 1028,6 47 0,0
25.05.2020 18:00:00 14,6 2,8 7 4 21 12 WNW 1028,1 48 0,0
25.05.2020 17:00:00 16,5 3,2 12 6 24 13 WNW 1027,6 49 0,0
25.05.2020 16:00:00 - - - - 23 12 - - - -
25.05.2020 15:00:00 15,5 3,9 12 7 22 12 NW 1027,4 40 0,0
25.05.2020 14:00:00 15,0 3,8 12 6 24 13 WNW 1027,3 38 0,0
25.05.2020 13:00:00 14,3 4,6 9 5 20 11 WNW 1026,9 38 0,0
25.05.2020 12:00:00 13,2 4,6 11 6 22 12 WNW 1026,7 48 0,0
25.05.2020 11:00:00 12,0 5,2 9 5 18 10 WNW 1026,3 43 0,0
25.05.2020 10:00:00 11,6 5,5 8 5 15 8 W 1025,8 33 0,0
25.05.2020 09:00:00 11,1 4,5 3 2 6 4 SW 1025,2 41 0,0
25.05.2020 08:00:00 8,3 4,7 4 2 6 4 SSW 1025,2 37 0,0
25.05.2020 07:00:00 4,7 4,4 0 0 7 4 N 1025,2 32 0,0
25.05.2020 06:00:00 3,1 3,0 2 1 5 3 ESE 1024,7 13 0,0
25.05.2020 05:00:00 1,6 1,5 2 1 5 3 NNW 1024,2 9 0,0
25.05.2020 04:00:00 -0,5 -0,6 0 0 5 3 N 1023,6 6 0,0
25.05.2020 03:00:00 -0,7 -0,8 0 0 3 2 N 1022,8 8 0,0
25.05.2020 02:00:00 -1,2 -1,3 0 0 2 1 N 1022,2 0,4 0,0
25.05.2020 01:00:00 -0,8 -0,9 0 0 4 2 N 1021,5 2,4 0,0
25.05.2020 00:00:00 0,0 -0,3 0 0 4 2 N 1020,8 3,1 0,0
24.05.2020 23:00:00 1,8 1,4 0 0 4 2 N 1020,1 2,1 0,0
24.05.2020 22:00:00 4,1 3,1 0 0 11 6 N 1019,0 26 0,0
24.05.2020 21:00:00 7,5 4,6 6 3 13 7 ESE 1017,7 50 0,0
24.05.2020 20:00:00 8,8 5,2 4 2 17 9 ESE 1016,9 49 0,0
24.05.2020 19:00:00 9,0 5,4 6 3 17 9 ESE 1016,1 50 0,0
24.05.2020 18:00:00 8,3 5,9 10 6 18 10 SE 1015,8 50 0,0
24.05.2020 17:00:00 7,5 6,0 8 5 18 10 SE 1015,7 - 0,0
24.05.2020 16:00:00 8,0 4,9 7 4 17 9 SE 1015,0 48 0,0
24.05.2020 15:00:00 7,5 5,0 7 4 16 9 SE 1014,6 50 0,0
24.05.2020 14:00:00 6,7 4,7 8 4 19 11 SE 1014,2 50 0,0
24.05.2020 13:00:00 6,9 4,6 8 4 17 9 SE 1013,7 50 0,0
24.05.2020 12:00:00 6,6 4,4 7 4 23 12 ESE 1013,4 50 0,0
24.05.2020 11:00:00 5,7 4,2 9 5 21 12 ESE 1013,2 36 0,0
24.05.2020 10:00:00 5,6 4,1 12 7 26 14 SE 1013,2 37 0,0
24.05.2020 09:00:00 5,6 4,4 13 7 22 12 SE 1012,8 19 0,5
24.05.2020 08:00:00 5,3 4,7 8 5 18 10 ESE 1012,6 6 0,5
24.05.2020 07:00:00 4,8 4,2 4 2 10 6 E 1012,6 16 0,8
24.05.2020 06:00:00 4,3 3,6 5 3 15 8 E 1012,9 30 0,2
24.05.2020 05:00:00 3,8 2,9 6 3 19 10 E 1013,2 44 0,1
24.05.2020 04:00:00 4,0 2,8 9 5 21 11 ESE 1013,4 25 0,1
24.05.2020 03:00:00 3,9 3,0 8 5 21 12 SE 1013,5 9 0,0
24.05.2020 02:00:00 4,0 3,0 8 5 26 14 SE 1013,8 50 0,0
24.05.2020 01:00:00 4,1 3,1 10 6 24 13 SE 1013,7 17 0,0
24.05.2020 00:00:00 4,2 3,0 7 4 21 11 SE 1013,6 10 0,0
23.05.2020 23:00:00 4,6 2,7 9 5 23 12 SE 1013,8 24 0,0
23.05.2020 22:00:00 5,1 2,5 7 4 29 16 SE 1013,8 50 0,0
23.05.2020 21:00:00 5,5 2,7 9 5 31 17 SE 1013,8 50 0,0
23.05.2020 20:00:00 6,2 3,0 11 6 34 18 SSE 1013,7 50 0,0
23.05.2020 19:00:00 6,6 3,4 13 7 34 18 SSE 1013,5 50 0,0
23.05.2020 18:00:00 6,7 3,5 10 6 32 17 SSE 1013,8 50 0,0
23.05.2020 17:00:00 6,5 4,0 11 6 29 16 SE 1014,2 48 0,0
23.05.2020 16:00:00 7,2 3,8 11 6 32 17 SSE 1014,2 27 0,1
23.05.2020 15:00:00 8,2 2,9 9 5 40 22 SSE 1014,1 47 0,0
23.05.2020 14:00:00 8,6 3,2 13 7 37 20 SSE 1014,3 28 0,0
23.05.2020 13:00:00 11,5 0,6 15 8 46 25 S 1013,2 40 0,0
23.05.2020 12:00:00 11,7 0,2 14 8 40 22 SSE 1013,5 48 0,0
23.05.2020 11:00:00 11,7 1,3 15 8 37 20 SSE 1013,5 41 0,0
23.05.2020 10:00:00 12,1 0,8 11 6 33 18 S 1013,6 41 0,0
23.05.2020 09:00:00 11,1 -0,1 8 4 29 16 S 1013,9 50 0,0
23.05.2020 08:00:00 10,7 -1,4 7 4 27 15 SSE 1014,0 47 0,0
23.05.2020 07:00:00 10,3 -0,2 6 4 19 10 SE 1014,5 47 0,0
23.05.2020 06:00:00 6,9 -0,8 8 4 21 11 SE 1015,6 50 0,0
23.05.2020 05:00:00 5,3 -2,3 6 3 13 7 SE 1016,5 50 0,0
23.05.2020 04:00:00 3,7 -3,6 5 3 17 9 SE 1017,1 50 0,0
23.05.2020 03:00:00 3,3 -3,9 5 3 11 6 SE 1017,7 50 0,0
23.05.2020 02:00:00 2,4 -4,4 5 3 15 8 ESE 1018,4 50 0,0
23.05.2020 01:00:00 5,1 -3,7 5 3 18 10 SE 1018,5 50 0,0
23.05.2020 00:00:00 5,8 -3,6 7 4 18 10 SE 1018,7 50 0,0

tt = temperature
td = dewpoint
ff = wind speed
fx = gusts
dd = wind direction
ppp = reduced air pressure
vv = visibility
rr = precipitation

Next stations